Time,TemperatureF,DewpointF,PressureIn,WindDirection,WindDirectionDegrees,WindSpeedMPH,WindSpeedGustMPH,Humidity,HourlyPrecipIn,Conditions,Clouds,dailyrainin,SoftwareType,DateUTC
2013-12-09 00:01:00,31.2,30.7,30.12,NNW,328,0.0,0.0,98,0.13,,OVC110,0.00,VWS V14.00,2013-12-09 05:01:00,
2013-12-09 00:06:00,31.2,30.7,30.12,NNW,328,0.0,0.0,98,0.13,,OVC110,0.01,VWS V14.00,2013-12-09 05:06:00,
2013-12-09 00:11:00,31.4,30.9,30.12,NNW,328,0.0,0.0,98,0.14,,OVC110,0.02,VWS V14.00,2013-12-09 05:11:00,
2013-12-09 00:17:00,31.4,30.9,30.12,NNW,328,0.0,0.0,98,0.12,,OVC110,0.02,VWS V14.00,2013-12-09 05:17:00,
2013-12-09 00:22:00,31.4,30.9,30.12,NNW,328,0.0,0.0,98,0.12,,OVC110,0.03,VWS V14.00,2013-12-09 05:22:00,
2013-12-09 00:27:00,31.4,30.9,30.12,NNW,328,0.0,0.0,98,0.10,,OVC110,0.03,VWS V14.00,2013-12-09 05:27:00,
2013-12-09 00:32:00,31.4,30.9,30.09,NNW,328,0.0,0.0,98,0.08,,BKN050,0.03,VWS V14.00,2013-12-09 05:32:00,
2013-12-09 00:37:00,31.4,30.9,30.09,NNW,328,0.0,0.0,98,0.07,,BKN050,0.03,VWS V14.00,2013-12-09 05:37:00,
2013-12-09 00:42:00,31.4,30.9,30.09,NNW,328,0.0,0.0,98,0.06,,BKN050,0.03,VWS V14.00,2013-12-09 05:42:00,
2013-12-09 00:47:00,31.4,30.9,30.09,NNW,328,0.0,0.0,98,0.06,,BKN050,0.03,VWS V14.00,2013-12-09 05:47:00,
2013-12-09 00:52:00,31.4,30.9,30.09,NNW,328,0.0,0.0,98,0.05,,BKN050,0.03,VWS V14.00,2013-12-09 05:52:00,
2013-12-09 00:57:00,31.4,30.9,30.09,NNW,328,0.0,0.0,98,0.05,,BKN050,0.03,VWS V14.00,2013-12-09 05:57:00,
2013-12-09 01:02:00,31.4,30.9,30.09,NNW,328,0.0,0.0,98,0.03,,OVC036,0.03,VWS V14.00,2013-12-09 06:02:00,
2013-12-09 01:07:00,31.4,30.9,30.09,NNW,328,0.0,0.0,98,0.02,,OVC036,0.03,VWS V14.00,2013-12-09 06:07:00,
2013-12-09 01:12:00,31.4,30.9,30.09,NNW,328,0.0,0.0,98,0.01,,OVC036,0.03,VWS V14.00,2013-12-09 06:12:00,
2013-12-09 01:17:00,31.4,30.9,30.09,NNW,328,0.0,0.0,98,0.01,,OVC036,0.03,VWS V14.00,2013-12-09 06:17:00,
2013-12-09 01:22:00,31.4,30.9,30.09,NNW,328,0.0,0.0,98,0.00,,OVC036,0.03,VWS V14.00,2013-12-09 06:22:00,
2013-12-09 01:27:00,31.4,30.9,30.09,NNW,328,0.0,0.0,98,0.00,,OVC036,0.03,VWS V14.00,2013-12-09 06:27:00,
2013-12-09 01:33:00,31.4,30.9,30.06,NNW,328,0.0,0.0,98,0.00,,OVC036,0.03,VWS V14.00,2013-12-09 06:33:00,
2013-12-09 01:38:00,31.4,30.9,30.06,NNW,328,0.0,0.0,98,0.00,,OVC036,0.03,VWS V14.00,2013-12-09 06:38:00,
2013-12-09 01:43:00,31.4,30.9,30.06,NNW,328,0.0,0.0,98,0.00,,OVC036,0.03,VWS V14.00,2013-12-09 06:43:00,
2013-12-09 01:48:00,31.4,30.9,30.06,NNW,328,0.0,0.0,98,0.00,,OVC036,0.03,VWS V14.00,2013-12-09 06:48:00,
2013-12-09 01:53:00,31.4,30.9,30.06,NNW,328,0.0,0.0,98,0.00,,OVC036,0.03,VWS V14.00,2013-12-09 06:53:00,
2013-12-09 01:58:00,31.4,30.9,30.06,NNW,328,0.0,0.0,98,0.00,,OVC036,0.03,VWS V14.00,2013-12-09 06:58:00,
2013-12-09 02:03:00,31.4,30.9,30.06,NNW,328,0.0,0.0,98,0.02,,-RA,0.05,VWS V14.00,2013-12-09 07:03:00,
2013-12-09 02:08:00,31.4,30.9,30.06,NNW,328,0.0,0.0,98,0.04,,-RA,0.07,VWS V14.00,2013-12-09 07:08:00,
2013-12-09 02:13:00,31.6,31.1,30.06,NNW,328,0.0,0.0,98,0.05,,-RA,0.08,VWS V14.00,2013-12-09 07:13:00,
2013-12-09 02:18:00,31.6,31.1,30.06,NNW,328,0.0,0.0,98,0.05,,-RA,0.08,VWS V14.00,2013-12-09 07:18:00,
2013-12-09 02:23:00,31.6,31.1,30.06,NNW,328,0.0,0.0,98,0.05,,-RA,0.08,VWS V14.00,2013-12-09 07:23:00,
2013-12-09 02:28:00,31.6,31.1,30.06,NNW,328,0.0,0.0,98,0.05,,-RA,0.08,VWS V14.00,2013-12-09 07:28:00,
2013-12-09 02:33:00,31.6,31.1,30.06,NNW,328,0.0,0.0,98,0.06,,-RA,0.09,VWS V14.00,2013-12-09 07:33:00,
2013-12-09 02:38:00,31.6,31.1,30.06,NNW,328,0.0,0.0,98,0.06,,-RA,0.09,VWS V14.00,2013-12-09 07:38:00,
2013-12-09 02:43:00,31.6,31.1,30.06,NNW,328,0.0,0.0,98,0.07,,-RA,0.10,VWS V14.00,2013-12-09 07:43:00,
2013-12-09 02:49:00,31.6,31.1,30.09,NNW,328,0.0,0.0,98,0.08,,-RA,0.11,VWS V14.00,2013-12-09 07:49:00,
2013-12-09 02:54:00,31.6,31.1,30.09,NNW,328,0.0,0.0,98,0.09,,-RA,0.12,VWS V14.00,2013-12-09 07:54:00,
2013-12-09 02:59:00,31.6,31.1,30.09,NNW,328,0.0,0.0,98,0.09,,-RA,0.12,VWS V14.00,2013-12-09 07:59:00,
2013-12-09 03:04:00,31.6,31.1,30.06,NNW,328,0.0,0.0,98,0.07,,-RA,0.12,VWS V14.00,2013-12-09 08:04:00,
2013-12-09 03:09:00,31.6,31.1,30.06,NNW,328,0.0,0.0,98,0.05,,-RA,0.12,VWS V14.00,2013-12-09 08:09:00,
2013-12-09 03:14:00,31.6,31.1,30.06,NNW,328,0.0,0.0,98,0.04,,-RA,0.12,VWS V14.00,2013-12-09 08:14:00,
2013-12-09 03:19:00,31.6,31.1,30.06,NNW,328,0.0,0.0,98,0.04,,-RA,0.12,VWS V14.00,2013-12-09 08:19:00,
2013-12-09 03:24:00,31.6,31.1,30.06,NNW,328,0.0,0.0,98,0.05,,-RA,0.13,VWS V14.00,2013-12-09 08:24:00,
2013-12-09 03:29:00,31.6,31.1,30.06,NNW,328,0.0,0.0,98,0.05,,-RA,0.13,VWS V14.00,2013-12-09 08:29:00,
2013-12-09 03:34:00,31.6,31.1,30.06,NNW,328,0.0,0.0,98,0.04,,-RA,0.13,VWS V14.00,2013-12-09 08:34:00,
2013-12-09 03:39:00,31.6,31.1,30.06,NNW,328,0.0,0.0,98,0.04,,-RA,0.13,VWS V14.00,2013-12-09 08:39:00,
2013-12-09 03:44:00,31.6,31.1,30.06,NNW,328,0.0,0.0,98,0.03,,-RA,0.13,VWS V14.00,2013-12-09 08:44:00,
2013-12-09 03:49:00,31.6,31.1,30.06,NNW,328,0.0,0.0,98,0.02,,-RA,0.13,VWS V14.00,2013-12-09 08:49:00,
2013-12-09 03:54:00,31.6,31.1,30.06,NNW,328,0.0,0.0,98,0.02,,-RA,0.14,VWS V14.00,2013-12-09 08:54:00,
2013-12-09 03:56:00,31.6,31.1,30.06,NNW,328,0.0,0.0,98,0.02,,-RA,0.14,VWS V14.00,2013-12-09 08:56:00,
2013-12-09 04:01:00,31.6,31.1,30.03,NNW,328,0.0,0.0,98,0.02,,-RA,0.14,VWS V14.00,2013-12-09 09:01:00,
2013-12-09 04:06:00,31.6,31.1,30.03,NNW,328,0.0,0.0,98,0.02,,-RA,0.14,VWS V14.00,2013-12-09 09:06:00,
2013-12-09 04:11:00,31.6,31.1,30.03,NNW,328,0.0,0.0,98,0.02,,-RA,0.14,VWS V14.00,2013-12-09 09:11:00,
2013-12-09 04:16:00,31.6,31.1,30.03,NNW,328,0.0,0.0,98,0.02,,-RA,0.14,VWS V14.00,2013-12-09 09:16:00,
2013-12-09 04:21:00,31.6,31.1,30.03,NNW,328,0.0,0.0,98,0.02,,-RA,0.14,VWS V14.00,2013-12-09 09:21:00,
2013-12-09 04:26:00,31.6,31.1,30.03,NNW,328,0.0,0.0,98,0.02,,-RA,0.15,VWS V14.00,2013-12-09 09:26:00,
2013-12-09 04:31:00,31.6,31.1,30.03,NNW,328,0.0,0.0,98,0.02,,-RA,0.15,VWS V14.00,2013-12-09 09:31:00,
2013-12-09 04:36:00,31.6,31.1,30.03,NNW,328,0.0,0.0,98,0.02,,-RA,0.15,VWS V14.00,2013-12-09 09:36:00,
2013-12-09 04:41:00,31.6,31.1,30.03,NNW,328,0.0,0.0,98,0.02,,-RA,0.15,VWS V14.00,2013-12-09 09:41:00,
2013-12-09 04:46:00,31.6,31.1,30.03,NNW,328,0.0,0.0,98,0.02,,-RA,0.15,VWS V14.00,2013-12-09 09:46:00,
2013-12-09 04:51:00,31.6,31.1,30.03,NNW,328,0.0,0.0,98,0.02,,-RA,0.15,VWS V14.00,2013-12-09 09:51:00,
2013-12-09 04:57:00,31.6,31.1,30.03,NNW,328,0.0,0.0,98,0.01,,-RA,0.15,VWS V14.00,2013-12-09 09:57:00,
2013-12-09 05:02:00,31.6,31.1,30.03,NNW,328,0.0,0.0,98,0.01,,,0.15,VWS V14.00,2013-12-09 10:02:00,
2013-12-09 05:07:00,31.6,31.1,30.03,NNW,328,0.0,0.0,98,0.01,,,0.15,VWS V14.00,2013-12-09 10:07:00,
2013-12-09 05:12:00,31.6,31.1,30.03,NNW,328,0.0,0.0,98,0.01,,,0.15,VWS V14.00,2013-12-09 10:12:00,
2013-12-09 05:17:00,31.6,31.1,30.03,NNW,328,0.0,0.0,98,0.01,,-RA,0.15,VWS V14.00,2013-12-09 10:17:00,
2013-12-09 05:22:00,31.7,31.2,30.03,NNW,328,0.0,0.0,98,0.02,,-RA,0.16,VWS V14.00,2013-12-09 10:22:00,
2013-12-09 05:27:00,31.7,31.2,30.03,NNW,328,0.0,0.0,98,0.01,,-RA,0.16,VWS V14.00,2013-12-09 10:27:00,
2013-12-09 05:32:00,31.7,31.2,30.03,NNW,328,0.0,0.0,98,0.01,,-RA,0.16,VWS V14.00,2013-12-09 10:32:00,
2013-12-09 05:37:00,31.7,31.2,30.03,NNW,328,0.0,0.0,98,0.01,,-RA,0.16,VWS V14.00,2013-12-09 10:37:00,
2013-12-09 05:42:00,31.7,31.2,30.03,NNW,328,0.0,0.0,98,0.01,,-RA,0.16,VWS V14.00,2013-12-09 10:42:00,
2013-12-09 05:47:00,31.7,31.2,30.03,NNW,328,0.0,0.0,98,0.01,,-RA,0.16,VWS V14.00,2013-12-09 10:47:00,
2013-12-09 05:52:00,31.7,31.2,30.03,NNW,328,0.0,0.0,98,0.02,,-RA,0.17,VWS V14.00,2013-12-09 10:52:00,
2013-12-09 05:57:00,31.7,31.2,30.03,NNW,328,0.0,0.0,98,0.02,,-RA,0.17,VWS V14.00,2013-12-09 10:57:00,
2013-12-09 06:01:00,31.7,31.2,30.03,NNW,328,0.0,0.0,98,0.02,,-RA,0.17,VWS V14.00,2013-12-09 11:01:00,
2013-12-09 06:06:00,31.7,31.2,30.03,NNW,328,0.0,0.0,98,0.04,,-RA,0.19,VWS V14.00,2013-12-09 11:06:00,
2013-12-09 06:11:00,31.7,31.2,30.03,NNW,328,0.0,0.0,98,0.05,,-RA,0.20,VWS V14.00,2013-12-09 11:11:00,
2013-12-09 06:16:00,31.7,31.2,30.03,NNW,328,0.0,0.0,98,0.05,,-RA,0.20,VWS V14.00,2013-12-09 11:16:00,
2013-12-09 06:21:00,31.7,31.2,30.03,NNW,328,0.0,0.0,98,0.06,,-RA,0.21,VWS V14.00,2013-12-09 11:21:00,
2013-12-09 06:26:00,31.7,31.2,30.03,NNW,328,0.0,0.0,98,0.05,,-RA,0.21,VWS V14.00,2013-12-09 11:26:00,
2013-12-09 06:31:00,31.7,31.2,30.03,NNW,328,0.0,0.0,98,0.06,,-RA,0.22,VWS V14.00,2013-12-09 11:31:00,
2013-12-09 06:36:00,31.7,31.2,30.03,NNW,328,0.0,0.0,98,0.06,,-RA,0.22,VWS V14.00,2013-12-09 11:36:00,
2013-12-09 06:41:00,31.7,31.2,30.03,NNW,328,0.0,0.0,98,0.06,,-RA,0.22,VWS V14.00,2013-12-09 11:41:00,
2013-12-09 06:46:00,31.7,31.2,30.03,NNW,328,0.0,0.0,98,0.07,,-RA,0.23,VWS V14.00,2013-12-09 11:46:00,
2013-12-09 06:51:00,31.7,31.2,30.03,NNW,328,0.0,0.0,98,0.06,,-RA,0.23,VWS V14.00,2013-12-09 11:51:00,
2013-12-09 06:56:00,31.7,31.2,30.03,NNW,328,0.0,0.0,98,0.06,,-RA,0.23,VWS V14.00,2013-12-09 11:56:00,
2013-12-09 07:02:00,31.7,31.2,30.03,NNW,328,0.0,0.0,98,0.04,,-RA,0.23,VWS V14.00,2013-12-09 12:02:00,
2013-12-09 07:07:00,31.7,31.2,30.03,NNW,328,0.0,0.0,98,0.04,,-RA,0.23,VWS V14.00,2013-12-09 12:07:00,
2013-12-09 07:12:00,31.7,31.2,30.03,NNW,328,0.0,0.0,98,0.03,,-RA,0.23,VWS V14.00,2013-12-09 12:12:00,
2013-12-09 07:17:00,31.7,31.2,30.03,NNW,328,0.0,0.0,98,0.03,,-RA,0.23,VWS V14.00,2013-12-09 12:17:00,
2013-12-09 07:22:00,31.7,31.2,30.03,NNW,328,0.0,0.0,98,0.02,,-RA,0.23,VWS V14.00,2013-12-09 12:22:00,
2013-12-09 07:27:00,31.7,31.2,30.03,NNW,328,0.0,0.0,98,0.02,,-RA,0.23,VWS V14.00,2013-12-09 12:27:00,
2013-12-09 07:32:00,31.7,31.2,30.03,NNW,328,0.0,0.0,98,0.01,,-RA,0.23,VWS V14.00,2013-12-09 12:32:00,
2013-12-09 07:37:00,31.7,31.2,30.03,NNW,328,0.0,0.0,98,0.01,,-RA,0.23,VWS V14.00,2013-12-09 12:37:00,
2013-12-09 07:42:00,31.7,31.2,30.03,NNW,328,0.0,0.0,98,0.01,,-RA,0.23,VWS V14.00,2013-12-09 12:42:00,
2013-12-09 07:47:00,31.7,31.2,30.03,NNW,328,0.0,0.0,98,0.01,,,0.24,VWS V14.00,2013-12-09 12:47:00,
2013-12-09 07:52:00,31.7,31.2,30.03,NNW,328,0.0,0.0,98,0.01,,,0.24,VWS V14.00,2013-12-09 12:52:00,
2013-12-09 07:57:00,31.7,31.2,30.03,NNW,328,0.0,0.0,98,0.02,,,0.25,VWS V14.00,2013-12-09 12:57:00,
2013-12-09 08:02:00,31.7,31.2,30.03,NNW,328,0.0,0.0,98,0.02,,-RA,0.25,VWS V14.00,2013-12-09 13:02:00,
2013-12-09 08:07:00,31.7,31.2,30.03,NNW,328,0.0,0.0,98,0.02,,-RA,0.25,VWS V14.00,2013-12-09 13:07:00,
2013-12-09 08:13:00,31.7,31.2,30.03,NNW,328,0.0,0.0,98,0.02,,-RA,0.25,VWS V14.00,2013-12-09 13:13:00,
2013-12-09 08:18:00,31.7,31.2,30.03,NNW,328,0.0,0.0,98,0.02,,RA,0.25,VWS V14.00,2013-12-09 13:18:00,
2013-12-09 08:23:00,31.7,31.2,30.03,NNW,328,0.0,0.0,98,0.02,,RA,0.25,VWS V14.00,2013-12-09 13:23:00,
2013-12-09 08:28:00,31.7,31.2,30.03,NNW,328,0.0,0.0,98,0.02,,RA,0.25,VWS V14.00,2013-12-09 13:28:00,
2013-12-09 08:33:00,31.7,31.2,30.03,NNW,328,0.0,0.0,98,0.02,,RA,0.25,VWS V14.00,2013-12-09 13:33:00,
2013-12-09 08:38:00,31.7,31.2,30.03,NNW,328,0.0,0.0,98,0.02,,RA,0.25,VWS V14.00,2013-12-09 13:38:00,
2013-12-09 08:43:00,31.9,31.4,30.03,NNW,328,0.0,0.0,98,0.02,,RA,0.25,VWS V14.00,2013-12-09 13:43:00,
2013-12-09 08:48:00,31.9,31.4,30.03,NNW,328,0.0,0.0,98,0.01,, +RA,0.25,VWS V14.00,2013-12-09 13:48:00,
2013-12-09 08:53:00,31.9,31.4,30.03,NNW,328,0.0,0.0,98,0.02,, +RA,0.26,VWS V14.00,2013-12-09 13:53:00,
2013-12-09 08:58:00,31.9,31.4,30.03,NNW,328,0.0,0.0,98,0.01,, +RA,0.26,VWS V14.00,2013-12-09 13:58:00,
2013-12-09 09:03:00,31.9,31.4,30.03,NNW,328,0.0,0.0,98,0.01,,-RA,0.26,VWS V14.00,2013-12-09 14:03:00,
2013-12-09 09:08:00,31.9,31.4,30.03,NNW,328,0.0,0.0,98,0.01,,-RA,0.26,VWS V14.00,2013-12-09 14:08:00,
2013-12-09 09:13:00,31.9,31.4,30.03,NNW,328,0.0,0.0,98,0.02,,-RA,0.27,VWS V14.00,2013-12-09 14:13:00,
2013-12-09 09:18:00,31.9,31.4,30.06,NNW,328,0.0,0.0,98,0.03,,-RA,0.28,VWS V14.00,2013-12-09 14:18:00,
2013-12-09 09:23:00,32.1,31.6,30.06,NNW,328,0.0,0.0,98,0.04,,-RA,0.29,VWS V14.00,2013-12-09 14:23:00,
2013-12-09 09:28:00,32.1,31.6,30.06,NNW,328,0.0,0.0,98,0.04,,-RA,0.29,VWS V14.00,2013-12-09 14:28:00,
2013-12-09 09:34:00,32.1,31.6,30.06,NNW,328,0.0,0.0,98,0.04,,,0.29,VWS V14.00,2013-12-09 14:34:00,
2013-12-09 09:39:00,32.3,31.8,30.06,NNW,328,0.0,0.0,98,0.04,,,0.29,VWS V14.00,2013-12-09 14:39:00,
2013-12-09 09:44:00,32.1,31.6,30.06,NNW,328,0.0,0.0,98,0.04,,,0.29,VWS V14.00,2013-12-09 14:44:00,
2013-12-09 09:49:00,32.1,31.6,30.06,NNW,328,0.0,0.0,98,0.04,,,0.29,VWS V14.00,2013-12-09 14:49:00,
2013-12-09 09:54:00,32.5,32.0,30.06,NNW,329,0.0,0.0,98,0.03,,,0.29,VWS V14.00,2013-12-09 14:54:00,
2013-12-09 09:59:00,32.5,32.0,30.06,NNW,328,0.0,0.0,98,0.03,,,0.29,VWS V14.00,2013-12-09 14:59:00,
2013-12-09 10:04:00,32.3,31.8,30.06,NNW,328,0.0,0.0,98,0.03,,RA,0.29,VWS V14.00,2013-12-09 15:04:00,
2013-12-09 10:09:00,32.3,31.8,30.06,NNW,328,0.0,0.0,98,0.03,,RA,0.29,VWS V14.00,2013-12-09 15:09:00,
2013-12-09 10:14:00,32.5,32.0,30.06,NNW,328,0.0,0.0,98,0.02,,RA,0.29,VWS V14.00,2013-12-09 15:14:00,
2013-12-09 10:19:00,32.5,32.0,30.06,NNW,328,0.0,0.0,98,0.01,,,0.29,VWS V14.00,2013-12-09 15:19:00,
2013-12-09 10:24:00,32.5,32.0,30.06,NNW,328,0.0,0.0,98,0.00,,,0.29,VWS V14.00,2013-12-09 15:24:00,
2013-12-09 10:30:00,32.5,32.0,30.06,NNW,329,0.0,0.0,98,0.00,,,0.29,VWS V14.00,2013-12-09 15:30:00,
2013-12-09 10:35:00,32.5,32.0,30.06,NNW,329,0.0,0.0,98,0.00,,,0.29,VWS V14.00,2013-12-09 15:35:00,
2013-12-09 10:40:00,32.5,32.0,30.06,NNW,328,0.0,0.0,98,0.01,,,0.30,VWS V14.00,2013-12-09 15:40:00,
2013-12-09 10:45:00,32.7,32.2,30.06,NNW,329,0.0,0.0,98,0.01,,,0.30,VWS V14.00,2013-12-09 15:45:00,
2013-12-09 10:50:00,32.7,32.2,30.06,NNW,328,0.0,0.0,98,0.01,,,0.30,VWS V14.00,2013-12-09 15:50:00,
2013-12-09 10:55:00,32.7,32.2,30.06,NNW,329,0.0,0.0,98,0.01,,,0.30,VWS V14.00,2013-12-09 15:55:00,
2013-12-09 11:00:00,32.8,32.3,30.06,NNW,329,0.0,0.0,98,0.01,,,0.30,VWS V14.00,2013-12-09 16:00:00,
2013-12-09 11:05:00,32.8,32.3,30.06,NNW,328,0.0,0.0,98,0.01,,,0.30,VWS V14.00,2013-12-09 16:05:00,
2013-12-09 11:10:00,32.8,32.3,30.06,NNW,328,0.0,0.0,98,0.01,,,0.30,VWS V14.00,2013-12-09 16:10:00,
2013-12-09 11:15:00,32.8,32.3,30.03,NNW,328,0.0,0.0,98,0.01,,,0.30,VWS V14.00,2013-12-09 16:15:00,
2013-12-09 11:20:00,32.7,32.2,30.03,NNW,328,0.0,0.0,98,0.01,,,0.30,VWS V14.00,2013-12-09 16:20:00,
2013-12-09 11:25:00,32.8,32.3,30.03,NNW,328,0.0,0.0,98,0.01,,,0.30,VWS V14.00,2013-12-09 16:25:00,
2013-12-09 11:30:00,32.8,32.3,30.03,NNW,328,0.0,0.0,98,0.01,,,0.30,VWS V14.00,2013-12-09 16:30:00,
2013-12-09 11:35:00,33.0,32.5,30.03,NNW,328,0.0,0.0,98,0.01,,,0.30,VWS V14.00,2013-12-09 16:35:00,
2013-12-09 11:41:00,33.0,32.5,30.03,NNW,328,0.0,0.0,98,0.00,,,0.30,VWS V14.00,2013-12-09 16:41:00,
2013-12-09 11:46:00,32.8,32.3,30.03,NNW,328,0.0,0.0,98,0.00,,,0.30,VWS V14.00,2013-12-09 16:46:00,
2013-12-09 11:51:00,32.8,32.3,30.03,NNW,328,0.0,0.0,98,0.00,,,0.30,VWS V14.00,2013-12-09 16:51:00,
2013-12-09 11:56:00,32.8,32.3,30.03,NNW,328,0.0,0.0,98,0.00,,,0.30,VWS V14.00,2013-12-09 16:56:00,
2013-12-09 12:01:00,33.0,32.5,30.03,NNW,328,0.0,0.0,98,0.00,,,0.30,VWS V14.00,2013-12-09 17:01:00,
2013-12-09 12:06:00,33.0,32.5,30.03,NNW,328,0.0,0.0,98,0.00,,,0.30,VWS V14.00,2013-12-09 17:06:00,
2013-12-09 12:11:00,33.0,32.5,30.03,NNW,328,0.0,0.0,98,0.00,,,0.30,VWS V14.00,2013-12-09 17:11:00,
2013-12-09 12:16:00,33.0,32.5,30.03,NNW,328,0.0,0.0,98,0.00,,,0.30,VWS V14.00,2013-12-09 17:16:00,
2013-12-09 12:21:00,33.0,32.5,30.03,NNW,328,0.0,0.0,98,0.00,,,0.30,VWS V14.00,2013-12-09 17:21:00,
2013-12-09 12:26:00,33.2,32.7,30.03,NNW,328,0.0,0.0,98,0.00,,,0.30,VWS V14.00,2013-12-09 17:26:00,
2013-12-09 12:31:00,33.4,32.9,30.03,NNW,328,0.0,0.0,98,0.00,,,0.30,VWS V14.00,2013-12-09 17:31:00,
2013-12-09 12:36:00,33.6,33.1,30.03,NNW,328,0.0,0.0,98,0.00,,,0.30,VWS V14.00,2013-12-09 17:36:00,
2013-12-09 12:41:00,33.8,33.3,30.03,WNW,302,0.0,0.0,98,0.00,,,0.30,VWS V14.00,2013-12-09 17:41:00,
2013-12-09 12:46:00,33.8,33.3,30.03,NNW,331,0.0,0.0,98,0.00,,,0.30,VWS V14.00,2013-12-09 17:46:00,
2013-12-09 12:51:00,33.9,33.4,30.03,NNW,330,0.0,0.0,98,0.00,,,0.30,VWS V14.00,2013-12-09 17:51:00,
2013-12-09 12:56:00,33.9,33.4,30.03,NNW,331,0.0,0.0,98,0.00,,,0.30,VWS V14.00,2013-12-09 17:56:00,
2013-12-09 13:02:00,34.1,33.6,30.03,NNE,32,0.0,0.0,98,0.00,,,0.30,VWS V14.00,2013-12-09 18:02:00,
2013-12-09 13:07:00,34.3,33.8,30.03,NNE,32,0.0,0.0,98,0.00,,,0.30,VWS V14.00,2013-12-09 18:07:00,
2013-12-09 13:12:00,34.5,34.0,30.03,SE,144,0.0,0.0,98,0.00,,,0.30,VWS V14.00,2013-12-09 18:12:00,
2013-12-09 13:17:00,35.2,34.7,30.03,SSE,156,0.0,0.0,98,0.00,,-RA,0.30,VWS V14.00,2013-12-09 18:17:00,
2013-12-09 13:22:00,35.8,35.3,30.03,South,185,2.5,3.2,98,0.00,,-RA,0.30,VWS V14.00,2013-12-09 18:22:00,
2013-12-09 13:27:00,35.8,35.3,30.03,South,180,0.0,0.0,98,0.00,,-RA,0.30,VWS V14.00,2013-12-09 18:27:00,
2013-12-09 13:32:00,36.2,35.6,30.03,WNW,282,0.0,3.2,98,0.00,,-RA,0.30,VWS V14.00,2013-12-09 18:32:00,
2013-12-09 13:37:00,36.3,35.8,30.03,SW,234,0.0,0.0,98,0.00,,-RA,0.30,VWS V14.00,2013-12-09 18:37:00,
2013-12-09 13:42:00,36.0,35.5,30.03,SSE,156,0.0,0.0,98,0.00,,-RA,0.30,VWS V14.00,2013-12-09 18:42:00,
2013-12-09 13:47:00,36.3,35.8,30.03,ENE,68,0.0,0.0,98,0.00,,-RA,0.30,VWS V14.00,2013-12-09 18:47:00,
2013-12-09 13:52:00,36.3,35.8,30.03,East,100,0.0,0.0,98,0.00,,-RA,0.30,VWS V14.00,2013-12-09 18:52:00,
2013-12-09 13:57:00,36.3,35.8,30.03,SE,144,3.4,4.3,98,0.00,,-RA,0.30,VWS V14.00,2013-12-09 18:57:00,
2013-12-09 14:02:00,36.7,36.2,30.03,SE,145,0.0,0.0,98,0.00,,,0.30,VWS V14.00,2013-12-09 19:02:00,
2013-12-09 14:07:00,36.9,36.4,30.03,SE,135,0.0,0.0,98,0.00,,,0.30,VWS V14.00,2013-12-09 19:07:00,
2013-12-09 14:13:00,37.6,37.1,30.03,West,263,0.0,0.0,98,0.00,,,0.30,VWS V14.00,2013-12-09 19:13:00,
2013-12-09 14:18:00,37.6,37.1,30.00,SSW,193,3.0,4.3,98,0.00,,,0.30,VWS V14.00,2013-12-09 19:18:00,
2013-12-09 14:23:00,38.0,37.5,30.00,South,187,0.0,0.0,98,0.00,,,0.30,VWS V14.00,2013-12-09 19:23:00,
2013-12-09 14:28:00,38.2,37.7,30.00,SSE,165,3.4,4.8,98,0.00,,,0.30,VWS V14.00,2013-12-09 19:28:00,
2013-12-09 14:33:00,38.7,38.2,30.00,South,177,2.5,3.8,98,0.00,,,0.30,VWS V14.00,2013-12-09 19:33:00,
2013-12-09 14:38:00,39.1,38.6,30.00,West,277,0.0,2.7,98,0.00,,,0.30,VWS V14.00,2013-12-09 19:38:00,
2013-12-09 14:43:00,38.7,38.2,30.00,SE,132,0.0,2.7,98,0.00,,,0.30,VWS V14.00,2013-12-09 19:43:00,
2013-12-09 14:48:00,38.9,38.4,30.00,WNW,290,0.0,3.2,98,0.00,,,0.30,VWS V14.00,2013-12-09 19:48:00,
2013-12-09 14:53:00,38.9,38.4,30.00,SE,127,0.0,0.0,98,0.00,,,0.30,VWS V14.00,2013-12-09 19:53:00,
2013-12-09 14:58:00,39.1,38.6,30.00,SE,126,3.0,3.2,98,0.00,,,0.30,VWS V14.00,2013-12-09 19:58:00,
2013-12-09 15:03:00,38.9,38.4,30.00,SSW,212,0.0,0.0,98,0.00,,OVC003,0.30,VWS V14.00,2013-12-09 20:03:00,
2013-12-09 15:08:00,39.1,38.6,30.00,SSE,164,5.4,5.9,98,0.00,,OVC003,0.30,VWS V14.00,2013-12-09 20:08:00,
2013-12-09 15:13:00,39.3,38.8,30.00,SSW,207,3.9,4.8,98,0.00,,OVC003,0.30,VWS V14.00,2013-12-09 20:13:00,
2013-12-09 15:18:00,40.0,39.5,30.00,South,177,0.0,4.8,98,0.00,,OVC013,0.30,VWS V14.00,2013-12-09 20:18:00,
2013-12-09 15:23:00,40.5,40.0,30.00,South,185,2.5,3.8,98,0.00,,OVC013,0.30,VWS V14.00,2013-12-09 20:23:00,
2013-12-09 15:28:00,40.7,40.2,30.00,SSE,151,3.4,4.3,98,0.00,,OVC013,0.30,VWS V14.00,2013-12-09 20:28:00,
2013-12-09 15:34:00,40.9,40.4,30.00,South,191,6.4,7.0,98,0.00,,BKN014,0.30,VWS V14.00,2013-12-09 20:34:00,
2013-12-09 15:39:00,41.1,40.6,30.00,SW,226,4.9,5.4,98,0.00,,BKN014,0.30,VWS V14.00,2013-12-09 20:39:00,
2013-12-09 15:44:00,41.1,40.6,30.00,SW,227,3.4,4.8,98,0.00,,BKN014,0.30,VWS V14.00,2013-12-09 20:44:00,
2013-12-09 15:49:00,41.3,40.8,30.00,SSW,206,3.0,7.0,98,0.00,,BKN014,0.30,VWS V14.00,2013-12-09 20:49:00,
2013-12-09 15:54:00,41.5,41.0,30.00,SSW,198,6.4,7.0,98,0.00,,BKN014,0.30,VWS V14.00,2013-12-09 20:54:00,
2013-12-09 15:59:00,41.5,41.0,30.00,South,189,4.4,7.0,98,0.00,,BKN014,0.30,VWS V14.00,2013-12-09 20:59:00,
2013-12-09 16:04:00,41.3,40.8,30.00,SSW,193,3.9,4.8,98,0.00,,BKN012,0.30,VWS V14.00,2013-12-09 21:04:00,
2013-12-09 16:09:00,41.3,40.8,30.00,WSW,237,0.0,3.8,98,0.00,,BKN012,0.30,VWS V14.00,2013-12-09 21:09:00,
2013-12-09 16:14:00,41.3,40.8,30.00,South,185,5.4,5.9,98,0.00,,BKN012,0.30,VWS V14.00,2013-12-09 21:14:00,
2013-12-09 16:19:00,40.9,40.4,30.00,SSW,199,3.4,6.4,98,0.00,,BKN012,0.30,VWS V14.00,2013-12-09 21:19:00,
2013-12-09 16:24:00,40.7,40.0,30.00,South,188,5.4,6.4,97,0.00,,BKN012,0.30,VWS V14.00,2013-12-09 21:24:00,
2013-12-09 16:29:00,40.5,39.5,30.00,South,176,2.5,3.2,96,0.00,,BKN012,0.30,VWS V14.00,2013-12-09 21:29:00,
2013-12-09 16:34:00,40.2,38.9,30.00,South,187,5.9,7.0,95,0.00,,BKN012,0.30,VWS V14.00,2013-12-09 21:34:00,
2013-12-09 16:39:00,40.0,38.7,30.00,East,82,3.0,3.8,95,0.00,,BKN012,0.30,VWS V14.00,2013-12-09 21:39:00,
2013-12-09 16:44:00,39.6,38.1,30.00,SW,226,4.4,7.0,94,0.00,,BKN012,0.30,VWS V14.00,2013-12-09 21:44:00,
2013-12-09 16:50:00,39.5,37.9,30.00,SSW,192,3.0,3.8,94,0.00,,OVC015,0.30,VWS V14.00,2013-12-09 21:50:00,
2013-12-09 16:55:00,39.1,37.2,30.00,South,176,3.0,4.3,93,0.00,,OVC015,0.30,VWS V14.00,2013-12-09 21:55:00,
2013-12-09 17:00:00,38.9,37.0,30.03,SSE,164,3.4,3.8,93,0.00,,OVC015,0.30,VWS V14.00,2013-12-09 22:00:00,
2013-12-09 17:05:00,38.5,36.7,30.03,SSE,167,3.0,6.4,93,0.00,,OVC015,0.30,VWS V14.00,2013-12-09 22:05:00,
2013-12-09 17:10:00,38.2,36.3,30.03,NW,311,4.4,4.8,93,0.00,,OVC015,0.30,VWS V14.00,2013-12-09 22:10:00,
2013-12-09 17:15:00,38.0,35.9,30.03,WSW,256,3.0,4.3,92,0.00,,OVC015,0.30,VWS V14.00,2013-12-09 22:15:00,
2013-12-09 17:20:00,37.8,35.7,30.03,West,280,3.9,7.5,92,0.00,,OVC015,0.30,VWS V14.00,2013-12-09 22:20:00,
2013-12-09 17:25:00,38.2,34.9,30.03,West,271,12.1,13.2,88,0.00,,OVC015,0.30,VWS V14.00,2013-12-09 22:25:00,
2013-12-09 17:30:00,38.5,33.2,30.03,NW,311,4.4,10.5,81,0.00,,OVC015,0.30,VWS V14.00,2013-12-09 22:30:00,
2013-12-09 17:35:00,38.3,32.1,30.03,West,267,8.9,9.7,78,0.00,,OVC019,0.30,VWS V14.00,2013-12-09 22:35:00,
2013-12-09 17:40:00,38.2,31.6,30.03,West,276,5.9,10.5,77,0.00,,OVC019,0.30,VWS V14.00,2013-12-09 22:40:00,
2013-12-09 17:45:00,38.0,30.8,30.06,WSW,255,11.1,12.1,75,0.00,,OVC019,0.30,VWS V14.00,2013-12-09 22:45:00,
2013-12-09 17:50:00,37.8,30.3,30.06,WSW,257,7.9,9.1,74,0.00,,OVC019,0.30,VWS V14.00,2013-12-09 22:50:00,
2013-12-09 17:55:00,37.6,29.4,30.06,SSW,192,11.1,12.1,72,0.00,,OVC019,0.30,VWS V14.00,2013-12-09 22:55:00,
2013-12-09 18:00:00,37.6,29.4,30.06,SSW,205,4.4,15.8,72,0.00,,OVC019,0.30,VWS V14.00,2013-12-09 23:00:00,
2013-12-09 18:06:00,37.2,28.4,30.06,WSW,246,8.4,9.1,70,0.00,,OVC019,0.30,VWS V14.00,2013-12-09 23:06:00,
2013-12-09 18:11:00,37.2,28.0,30.06,West,280,9.6,12.6,69,0.00,,OVC019,0.30,VWS V14.00,2013-12-09 23:11:00,
2013-12-09 18:16:00,37.1,27.9,30.06,WSW,237,8.9,10.5,69,0.00,,OVC014,0.30,VWS V14.00,2013-12-09 23:16:00,
2013-12-09 18:21:00,36.7,27.9,30.06,SW,231,6.4,9.1,70,0.00,,OVC014,0.30,VWS V14.00,2013-12-09 23:21:00,
2013-12-09 18:26:00,36.7,27.9,30.06,WSW,244,5.9,9.9,70,0.00,,OVC014,0.30,VWS V14.00,2013-12-09 23:26:00,
2013-12-09 18:31:00,36.3,27.8,30.06,WSW,238,3.0,4.8,71,0.00,,OVC014,0.30,VWS V14.00,2013-12-09 23:31:00,
2013-12-09 18:36:00,36.3,27.8,30.06,WSW,254,3.9,9.1,71,0.00,,OVC014,0.30,VWS V14.00,2013-12-09 23:36:00,
2013-12-09 18:41:00,36.3,27.1,30.06,SW,216,4.4,7.5,69,0.00,,OVC014,0.30,VWS V14.00,2013-12-09 23:41:00,
2013-12-09 18:46:00,36.2,27.3,30.06,WNW,282,5.4,9.7,70,0.00,,OVC014,0.30,VWS V14.00,2013-12-09 23:46:00,
2013-12-09 18:51:00,36.0,27.1,30.06,SW,224,6.4,7.0,70,0.00,,OVC014,0.30,VWS V14.00,2013-12-09 23:51:00,
2013-12-09 18:56:00,35.8,27.0,30.06,SW,230,6.4,7.0,70,0.00,,OVC014,0.30,VWS V14.00,2013-12-09 23:56:00,
2013-12-09 19:01:00,35.6,27.1,30.06,SW,232,4.4,4.8,71,0.00,,OVC012,0.30,VWS V14.00,2013-12-10 00:01:00,
2013-12-09 19:06:00,35.4,26.6,30.06,SW,220,3.0,6.4,70,0.00,,OVC012,0.30,VWS V14.00,2013-12-10 00:06:00,
2013-12-09 19:11:00,35.4,26.6,30.06,SSW,209,3.0,9.7,70,0.00,,OVC012,0.30,VWS V14.00,2013-12-10 00:11:00,
2013-12-09 19:16:00,35.4,26.3,30.06,West,263,5.9,8.1,69,0.00,,OVC012,0.30,VWS V14.00,2013-12-10 00:16:00,
2013-12-09 19:21:00,35.4,25.6,30.06,WNW,296,6.4,9.7,67,0.00,,OVC012,0.30,VWS V14.00,2013-12-10 00:21:00,
2013-12-09 19:27:00,35.2,25.7,30.06,South,169,3.9,5.9,68,0.00,,OVC012,0.30,VWS V14.00,2013-12-10 00:27:00,
2013-12-09 19:32:00,35.2,25.4,30.06,SSW,211,6.4,9.7,67,0.00,,OVC012,0.30,VWS V14.00,2013-12-10 00:32:00,
2013-12-09 19:37:00,34.9,25.0,30.06,West,263,8.4,9.1,67,0.00,,OVC012,0.30,VWS V14.00,2013-12-10 00:37:00,
2013-12-09 19:42:00,34.9,25.0,30.06,WSW,244,6.4,7.0,67,0.00,,OVC012,0.30,VWS V14.00,2013-12-10 00:42:00,
2013-12-09 19:47:00,34.9,25.0,30.06,SSW,209,4.4,6.4,67,0.00,,OVC012,0.30,VWS V14.00,2013-12-10 00:47:00,
2013-12-09 19:52:00,34.5,25.0,30.06,WSW,240,6.4,7.0,68,0.00,,OVC012,0.30,VWS V14.00,2013-12-10 00:52:00,
2013-12-09 19:57:00,34.5,25.4,30.06,South,176,3.4,7.5,69,0.00,,OVC012,0.30,VWS V14.00,2013-12-10 00:57:00,
2013-12-09 20:02:00,34.3,25.2,30.06,WSW,239,3.4,3.8,69,0.00,,OVC017,0.30,VWS V14.00,2013-12-10 01:02:00,
2013-12-09 20:07:00,34.1,25.4,30.06,WSW,241,4.4,4.8,70,0.00,,OVC017,0.30,VWS V14.00,2013-12-10 01:07:00,
2013-12-09 20:12:00,34.1,25.4,30.06,SW,236,3.9,7.0,70,0.00,,OVC017,0.30,VWS V14.00,2013-12-10 01:12:00,
2013-12-09 20:17:00,33.9,25.2,30.06,WNW,292,0.0,3.8,70,0.00,,OVC017,0.30,VWS V14.00,2013-12-10 01:17:00,
2013-12-09 20:22:00,33.6,24.9,30.06,WSW,237,3.0,3.2,70,0.00,,OVC017,0.30,VWS V14.00,2013-12-10 01:22:00,
2013-12-09 20:27:00,33.6,25.2,30.06,SSW,212,3.0,4.3,71,0.00,,OVC017,0.30,VWS V14.00,2013-12-10 01:27:00,
2013-12-09 20:32:00,33.6,25.2,30.06,SW,234,3.0,3.2,71,0.00,,OVC013,0.30,VWS V14.00,2013-12-10 01:32:00,
2013-12-09 20:37:00,33.6,24.9,30.06,SSW,206,4.4,4.8,70,0.00,,OVC013,0.30,VWS V14.00,2013-12-10 01:37:00,
2013-12-09 20:43:00,33.6,24.9,30.06,WSW,252,3.4,4.3,70,0.00,,OVC013,0.30,VWS V14.00,2013-12-10 01:43:00,
2013-12-09 20:48:00,33.4,25.0,30.06,WSW,245,3.9,6.4,71,0.00,,OVC015,0.30,VWS V14.00,2013-12-10 01:48:00,
2013-12-09 20:53:00,33.4,24.7,30.06,WSW,255,5.4,5.9,70,0.00,,OVC015,0.30,VWS V14.00,2013-12-10 01:53:00,
2013-12-09 20:58:00,33.2,24.8,30.06,WSW,244,3.0,4.8,71,0.00,,OVC015,0.30,VWS V14.00,2013-12-10 01:58:00,
2013-12-09 21:03:00,33.2,24.8,30.06,SSW,209,3.0,4.8,71,0.00,,OVC017,0.30,VWS V14.00,2013-12-10 02:03:00,
2013-12-09 21:08:00,33.0,24.7,30.06,SW,229,3.9,4.3,71,0.00,,OVC017,0.30,VWS V14.00,2013-12-10 02:08:00,
2013-12-09 21:13:00,33.0,24.7,30.06,SSW,192,4.4,4.8,71,0.00,,OVC017,0.30,VWS V14.00,2013-12-10 02:13:00,
2013-12-09 21:18:00,33.0,24.7,30.06,SSW,204,3.9,4.3,71,0.00,,OVC017,0.30,VWS V14.00,2013-12-10 02:18:00,
2013-12-09 21:23:00,33.0,25.0,30.06,SSW,213,0.0,3.2,72,0.00,,OVC017,0.30,VWS V14.00,2013-12-10 02:23:00,
2013-12-09 21:28:00,32.8,24.8,30.06,SSW,202,2.5,4.8,72,0.00,,OVC017,0.30,VWS V14.00,2013-12-10 02:28:00,
2013-12-09 21:33:00,32.7,24.6,30.06,South,185,3.0,4.3,72,0.00,,OVC015,0.30,VWS V14.00,2013-12-10 02:33:00,
2013-12-09 21:38:00,32.5,24.8,30.06,SSE,155,3.9,4.3,73,0.00,,OVC015,0.30,VWS V14.00,2013-12-10 02:38:00,
2013-12-09 21:43:00,31.9,24.6,30.06,SSE,152,3.9,4.3,74,0.00,,OVC015,0.30,VWS V14.00,2013-12-10 02:43:00,
2013-12-09 21:48:00,31.9,25.2,30.06,SE,139,3.0,3.8,76,0.00,,OVC013,0.30,VWS V14.00,2013-12-10 02:48:00,
2013-12-09 21:53:00,31.7,25.4,30.06,SSE,165,4.4,4.8,77,0.00,,OVC013,0.30,VWS V14.00,2013-12-10 02:53:00,
2013-12-09 21:59:00,31.6,25.2,30.06,SSE,149,0.0,3.2,77,0.00,,OVC013,0.30,VWS V14.00,2013-12-10 02:59:00,
2013-12-09 22:04:00,31.4,25.0,30.06,SE,145,0.0,3.8,77,0.00,,OVC015,0.30,VWS V14.00,2013-12-10 03:04:00,
2013-12-09 22:09:00,31.4,25.0,30.06,SSE,163,2.5,3.2,77,0.00,,OVC015,0.30,VWS V14.00,2013-12-10 03:09:00,
2013-12-09 22:14:00,31.4,25.0,30.03,SSE,163,0.0,0.0,77,0.00,,OVC015,0.30,VWS V14.00,2013-12-10 03:14:00,
2013-12-09 22:19:00,31.2,24.8,30.03,SSE,163,2.5,3.2,77,0.00,,OVC015,0.30,VWS V14.00,2013-12-10 03:19:00,
2013-12-09 22:24:00,31.2,24.8,30.03,SSE,163,0.0,2.7,77,0.00,,OVC015,0.30,VWS V14.00,2013-12-10 03:24:00,
2013-12-09 22:29:00,31.2,24.8,30.03,SSE,163,0.0,0.0,77,0.00,,OVC015,0.30,VWS V14.00,2013-12-10 03:29:00,
2013-12-09 22:34:00,30.8,24.5,30.03,SSE,163,3.4,3.8,77,0.00,,OVC013,0.30,VWS V14.00,2013-12-10 03:34:00,
2013-12-09 22:39:00,30.8,24.8,30.03,SSE,163,0.0,3.2,78,0.00,,OVC013,0.30,VWS V14.00,2013-12-10 03:39:00,
2013-12-09 22:44:00,30.6,24.6,30.03,SSE,163,3.0,3.2,78,0.00,,OVC013,0.30,VWS V14.00,2013-12-10 03:44:00,
2013-12-09 22:49:00,30.5,24.4,30.03,SSE,163,2.5,2.7,78,0.00,,OVC015,0.30,VWS V14.00,2013-12-10 03:49:00,
2013-12-09 22:54:00,30.6,24.6,30.03,SSE,163,0.0,0.0,78,0.00,,OVC015,0.30,VWS V14.00,2013-12-10 03:54:00,
2013-12-09 22:59:00,30.6,24.6,30.03,SSE,163,0.0,2.7,78,0.00,,OVC015,0.30,VWS V14.00,2013-12-10 03:59:00,
2013-12-09 23:04:00,30.5,24.4,30.03,SSE,163,0.0,0.0,78,0.00,,OVC013,0.30,VWS V14.00,2013-12-10 04:04:00,
2013-12-09 23:09:00,30.3,24.2,30.03,SSE,163,3.0,3.2,78,0.00,,OVC013,0.30,VWS V14.00,2013-12-10 04:09:00,
2013-12-09 23:15:00,30.3,24.2,30.03,SSE,162,2.5,3.2,78,0.00,,OVC013,0.30,VWS V14.00,2013-12-10 04:15:00,
2013-12-09 23:20:00,30.1,24.4,30.03,SSE,157,0.0,2.7,79,0.00,,OVC013,0.30,VWS V14.00,2013-12-10 04:20:00,
2013-12-09 23:25:00,29.9,24.5,30.03,SSE,157,3.0,3.8,80,0.00,,OVC013,0.30,VWS V14.00,2013-12-10 04:25:00,
2013-12-09 23:30:00,29.9,24.8,30.03,SSE,154,4.4,4.8,81,0.00,,OVC013,0.30,VWS V14.00,2013-12-10 04:30:00,
2013-12-09 23:35:00,30.3,25.1,30.03,South,189,3.0,3.8,81,0.00,,OVC013,0.30,VWS V14.00,2013-12-10 04:35:00,
2013-12-09 23:40:00,30.1,24.7,30.03,SSW,193,2.5,2.7,80,0.00,,OVC013,0.30,VWS V14.00,2013-12-10 04:40:00,
2013-12-09 23:45:00,30.3,24.9,30.03,SSW,193,0.0,0.0,80,0.00,,OVC013,0.30,VWS V14.00,2013-12-10 04:45:00,
2013-12-09 23:50:00,30.5,25.0,30.03,SSE,153,2.5,2.7,80,0.00,,OVC013,0.30,VWS V14.00,2013-12-10 04:50:00,
2013-12-09 23:55:00,30.3,25.1,30.03,SE,138,2.5,2.7,81,0.00,,OVC013,0.30,VWS V14.00,2013-12-10 04:55:00,